This demonstration page uses our WeatherBlox Daily Observations layout. Learn more.

Left ArrowRight Arrow

Hourly Observations for January 27, 2020

Temp ( °F °C ) Dew Point ( °F °C ) Humidity (%) Winds ( mph kmh ) Pressure ( in mb ) Visibility ( mi km ) Precip ( " mm )
12:00 am 00:00 Cloudy with Mist and Fog 27 -2.8 26 -3.3 96 96 S 5 7 30.03 1017 3 4 0.00 0.00
12:13 am 00:13 Mostly Cloudy with Mist and Fog 27 -2.8 26 -3.3 96 96 SSW 5 7 30.03 1017 4 6 0.00 0.00
12:19 am 00:19 Mostly Cloudy with Mist and Fog 28 -2.2 26 -3.3 92 92 S 3 6 30.02 1017 2 3 0.00 0.00
12:27 am 00:27 Mostly Cloudy with Mist and Fog 28 -2.2 27 -2.8 96 96 Calm 30.02 1017 1 2 0.00 0.00
12:39 am 00:39 Cloudy with Mist and Fog 28 -2.2 27 -2.8 96 96 Calm 30.02 1017 2 3 0.00 0.00
12:45 am 00:45 Cloudy with Mist and Fog 28 -2.2 27 -2.8 96 96 Calm 30.02 1017 1 2 0.00 0.00
12:53 am 00:53 Cloudy with Mist and Fog 28 -2.2 27 -2.8 96 96 SW 5 7 29.98 1015 2 2 0.00 0.00
1:02 am 01:02 Cloudy with Mist and Fog 29 -1.7 27 -2.8 92 92 SSW 3 6 30.02 1017 1 1 0.00 0.00
1:11 am 01:11 Cloudy with Mist and Fog 28 -2.2 27 -2.8 96 96 SSW 5 7 30.02 1017 2 2 0.00 0.00
1:14 am 01:14 Cloudy with Mist and Fog 28 -2.2 27 -2.8 96 96 SW 5 7 30.02 1017 3 5 0.00 0.00
1:53 am 01:53 Cloudy with Mist and Fog 27 -2.8 27 -2.8 100 100 Calm 29.98 1015 5 8 0.00 0.00
2:53 am 02:53 Cloudy with Mist and Fog 28 -2.2 27 -2.8 96 96 SW 3 6 30.00 1016 4 6 0.00 0.00
3:53 am 03:53 Cloudy with Mist and Fog 29 -1.7 28 -2.2 96 96 W 3 6 30.00 1016 2 2 0.00 0.00
3:58 am 03:58 Mostly Cloudy with Mist and Fog 29 -1.7 28 -2.2 96 96 W 3 6 30.04 1017 1 1 0.00 0.00
4:14 am 04:14 Cloudy with Mist and Fog 29 -1.7 28 -2.2 96 96 W 3 6 30.04 1017 2 2 0.00 0.00
4:30 am 04:30 Mostly Cloudy with Mist and Fog 29 -1.7 28 -2.2 96 96 W 3 6 30.05 1018 1 1 0.00 0.00
4:53 am 04:53 Mostly Cloudy with Freezing Fog 29 -1.7 28 -2.2 96 96 WSW 3 6 30.01 1016 1 1 0.00 0.00
5:53 am 05:53 Mostly Cloudy with Light Wintry Mix 29 -1.7 28 -2.2 96 96 WSW 6 9 30.02 1017 1 2 0.00 0.00
6:06 am 06:06 Cloudy with Light Wintry Mix 29 -1.7 28 -2.2 96 96 W 7 11 30.06 1018 2 3 0.00 0.00
6:21 am 06:21 Cloudy with Light Snow 29 -1.7 28 -2.2 96 96 WSW 5 7 30.06 1018 3 5 0.01 0.25
6:53 am 06:53 Cloudy with Mist and Fog 29 -1.7 29 -1.7 100 100 SW 3 6 30.02 1017 6 10 0.02 0.51
7:07 am 07:07 Cloudy 30 -1.1 29 -1.7 96 96 SSW 6 9 30.04 1017 7 11 0.00 0.00
7:10 am 07:10 Cloudy 30 -1.1 29 -1.7 96 96 S 8 13 30.04 1017 7 11 0.00 0.00
7:53 am 07:53 Cloudy 30 -1.1 28 -2.2 92 92 WSW 5 7 30.02 1017 10 16 0.00 0.00
8:53 am 08:53 Cloudy 31 -0.6 29 -1.7 92 92 WSW 6 9 30.02 1017 10 16 0.00 0.00
9:53 am 09:53 Partly Cloudy 32 0 30 -1.1 92 92 SW 15 24 30.02 1017 10 16 0.00 0.00
10:53 am 10:53 Sunny 35 1.7 33 0.6 93 93 W 8 13 30.02 1017 10 16 0.00 0.00
11:53 am 11:53 Sunny 37 2.8 31 -0.6 79 79 SW 10 17 30.02 1017 10 16 0.00 0.00
12:53 pm 12:53 Mostly Sunny 39 3.9 31 -0.6 73 73 SW 17 28 30.00 1016 10 16 0.00 0.00
1:53 pm 13:53 Partly Cloudy 39 3.9 31 -0.6 73 73 SW 18 30 29.99 1016 10 16 0.00 0.00
2:53 pm 14:53 Sunny 39 3.9 32 0 76 76 SW 15 24 30.00 1016 10 16 0.00 0.00
3:53 pm 15:53 Sunny 42 5.6 31 -0.6 65 65 SW 15 24 30.00 1016 10 16 0.00 0.00
4:53 pm 16:53 Sunny 40 4.4 30 -1.1 68 68 WSW 13 20 30.01 1016 10 16 0.00 0.00
5:53 pm 17:53 Clear 37 2.8 29 -1.7 73 73 SW 13 20 30.03 1017 10 16 0.00 0.00
6:53 pm 18:53 Clear 33 0.6 28 -2.2 82 82 SW 13 20 30.05 1018 10 16 0.00 0.00
7:53 pm 19:53 Clear 33 0.6 27 -2.8 78 78 NNE 5 7 30.05 1018 10 16 0.00 0.00
8:53 pm 20:53 Clear 33 0.6 26 -3.3 75 75 Calm 30.07 1018 10 16 0.00 0.00
9:53 pm 21:53 Clear 32 0 26 -3.3 79 79 SW 14 22 30.07 1018 10 16 0.00 0.00
10:53 pm 22:53 Clear 32 0 25 -3.9 75 75 SW 17 28 30.07 1018 10 16 0.00 0.00
11:53 pm 23:53 Clear 31 -0.6 23 -5 72 72 SW 16 26 30.07 1018 10 16 0.00 0.00

Powered by AerisWeather